• In Hungary
  • List of Countries
  • For 7 days
  • Water Temperature
  • Satellite Maps
  • Weather Map
  • News
  • Weather Widgets
  • user-avatar
    Login

    Hourly Weather Madmas

    Today, 23 May, Wednesday

    Time Temperature Precipitation Wind Pressure Humidity
    00:00 +12°C° 0 mm 3 mps 760 mmHg 43%
    01:00 +12°C° 0 mm 3 mps 760 mmHg 48%
    02:00 +12°C° 0 mm 3 mps 759 mmHg 52%
    03:00 +12°C° 0 mm 3 mps 759 mmHg 57%
    04:00 +13°C° 0 mm 3 mps 758 mmHg 60%
    05:00 +16°C° 0 mm 3 mps 758 mmHg 62%
    06:00 +17°C° 0 mm 3 mps 757 mmHg 65%
    07:00 +17°C° 0 mm 3 mps 756 mmHg 64%
    08:00 +18°C° 0 mm 3 mps 756 mmHg 63%
    09:00 +18°C° 0 mm 4 mps 756 mmHg 63%
    10:00 +20°C° 0 mm 4 mps 755 mmHg 55%
    11:00 +22°C° 0 mm 5 mps 754 mmHg 47%
    12:00 +24°C° 0 mm 6 mps 754 mmHg 39%
    13:00 +25°C° 0 mm 5 mps 753 mmHg 40%
    14:00 +25°C° 0 mm 5 mps 753 mmHg 42%
    15:00 +23°C° 0 mm 5 mps 752 mmHg 44%
    16:00 +23°C° 0 mm 4 mps 752 mmHg 45%
    17:00 +22°C° 0 mm 4 mps 751 mmHg 47%
    18:00 +22°C° 0 mm 4 mps 751 mmHg 49%
    19:00 +20°C° 0.5 mm 4 mps 751 mmHg 58%
    20:00 +18°C° 0.5 mm 3 mps 751 mmHg 68%
    21:00 +16°C° 0.5 mm 3 mps 751 mmHg 77%
    22:00 +14°C° 0.5 mm 3 mps 751 mmHg 82%
    23:00 +13°C° 0.5 mm 3 mps 752 mmHg 86%

    Tomorrow, 24 May, Thursday

    Time Temperature Precipitation Wind Pressure Humidity
    00:00 +12°C° 0.5 mm 3 mps 752 mmHg 90%
    01:00 +11°C° 0 mm 3 mps 753 mmHg 88%
    02:00 +8°C° 0 mm 4 mps 754 mmHg 85%
    03:00 +6°C° 0 mm 4 mps 755 mmHg 82%
    04:00 +6°C° 0 mm 4 mps 755 mmHg 78%
    05:00 +6°C° 0 mm 4 mps 756 mmHg 74%
    06:00 +6°C° 0 mm 4 mps 757 mmHg 69%
    07:00 +7°C° 0 mm 4 mps 757 mmHg 61%
    08:00 +8°C° 0 mm 4 mps 758 mmHg 53%
    09:00 +10°C° 0 mm 4 mps 758 mmHg 45%
    10:00 +11°C° 0 mm 4 mps 758 mmHg 41%
    11:00 +12°C° 0 mm 4 mps 758 mmHg 38%
    12:00 +13°C° 0 mm 4 mps 758 mmHg 34%
    13:00 +12°C° 0 mm 4 mps 758 mmHg 35%
    14:00 +12°C° 0 mm 5 mps 759 mmHg 37%
    15:00 +12°C° 0 mm 5 mps 759 mmHg 38%
    16:00 +10°C° 0 mm 5 mps 759 mmHg 40%
    17:00 +10°C° 0 mm 4 mps 759 mmHg 41%
    18:00 +8°C° 0 mm 4 mps 759 mmHg 43%
    19:00 +7°C° 0 mm 4 mps 759 mmHg 47%
    20:00 +7°C° 0 mm 3 mps 760 mmHg 50%
    21:00 +5°C° 0 mm 3 mps 760 mmHg 54%
    22:00 +5°C° 0 mm 3 mps 760 mmHg 55%
    23:00 +4°C° 0 mm 3 mps 760 mmHg 56%

    Day after tomorrow, 25 May, Friday

    Time Temperature Precipitation Wind Pressure Humidity
    00:00 +4°C° 0 mm 3 mps 760 mmHg 58%
    01:00 +3°C° 0 mm 3 mps 761 mmHg 61%
    02:00 +2°C° 0 mm 3 mps 761 mmHg 64%
    03:00 +2°C° 0 mm 2 mps 761 mmHg 67%
    04:00 +2°C° 0 mm 3 mps 761 mmHg 62%
    05:00 +3°C° 0 mm 3 mps 762 mmHg 57%
    06:00 +3°C° 0 mm 4 mps 762 mmHg 52%
    07:00 +4°C° 0 mm 4 mps 762 mmHg 47%
    08:00 +5°C° 0 mm 4 mps 762 mmHg 42%
    09:00 +6°C° 0 mm 4 mps 762 mmHg 38%
    10:00 +7°C° 0 mm 4 mps 762 mmHg 35%
    11:00 +8°C° 0 mm 4 mps 762 mmHg 33%
    12:00 +10°C° 0 mm 4 mps 762 mmHg 31%
    13:00 +11°C° 0 mm 4 mps 762 mmHg 31%
    14:00 +11°C° 0 mm 4 mps 762 mmHg 31%
    15:00 +12°C° 0 mm 4 mps 762 mmHg 31%
    16:00 +12°C° 0 mm 3 mps 762 mmHg 33%
    17:00 +12°C° 0 mm 3 mps 762 mmHg 35%
    18:00 +12°C° 0 mm 3 mps 762 mmHg 38%
    19:00 +10°C° 0 mm 2 mps 762 mmHg 46%
    20:00 +8°C° 0 mm 2 mps 762 mmHg 54%
    21:00 +8°C° 0 mm 1 mps 762 mmHg 62%
    22:00 +7°C° 0 mm 1 mps 762 mmHg 66%
    23:00 +6°C° 0 mm 1 mps 762 mmHg 69%

    26 May, Saturday

    Time Temperature Precipitation Wind Pressure Humidity
    00:00 +6°C° 0 mm 1 mps 763 mmHg 73%
    01:00 +5°C° 0 mm 1 mps 763 mmHg 74%
    02:00 +5°C° 0 mm 1 mps 763 mmHg 75%
    03:00 +5°C° 0 mm 1 mps 763 mmHg 76%
    04:00 +6°C° 0 mm 2 mps 762 mmHg 69%
    05:00 +8°C° 0 mm 2 mps 762 mmHg 62%
    06:00 +10°C° 0 mm 2 mps 762 mmHg 55%
    07:00 +12°C° 0 mm 2 mps 762 mmHg 49%
    08:00 +14°C° 0 mm 2 mps 762 mmHg 44%
    09:00 +16°C° 0 mm 2 mps 761 mmHg 39%
    10:00 +17°C° 0 mm 2 mps 761 mmHg 36%
    11:00 +19°C° 0 mm 2 mps 760 mmHg 34%
    12:00 +20°C° 0 mm 2 mps 760 mmHg 32%
    13:00 +20°C° 0 mm 2 mps 759 mmHg 31%
    14:00 +21°C° 0 mm 2 mps 759 mmHg 30%
    15:00 +21°C° 0 mm 2 mps 759 mmHg 28%
    16:00 +21°C° 0 mm 2 mps 758 mmHg 30%
    17:00 +22°C° 0 mm 1 mps 758 mmHg 32%
    18:00 +22°C° 0 mm 1 mps 757 mmHg 34%
    19:00 +20°C° 0 mm 1 mps 757 mmHg 40%
    20:00 +18°C° 0 mm 1 mps 756 mmHg 46%
    21:00 +14°C° 0 mm 2 mps 756 mmHg 53%
    22:00 +14°C° 0 mm 2 mps 755 mmHg 54%
    23:00 +13°C° 0 mm 3 mps 754 mmHg 56%

    27 May, Sunday

    Time Temperature Precipitation Wind Pressure Humidity
    00:00 +13°C° 0 mm 3 mps 753 mmHg 58%
    01:00 +13°C° 0.1 mm 3 mps 752 mmHg 63%
    02:00 +13°C° 0.1 mm 3 mps 751 mmHg 67%
    03:00 +13°C° 0.1 mm 4 mps 750 mmHg 72%
    04:00 +13°C° 0.5 mm 4 mps 750 mmHg 75%
    05:00 +13°C° 0.5 mm 5 mps 750 mmHg 79%
    06:00 +11°C° 0.5 mm 6 mps 749 mmHg 82%
    07:00 +10°C° 0.1 mm 6 mps 750 mmHg 78%
    08:00 +8°C° 0.1 mm 6 mps 751 mmHg 74%
    09:00 +6°C° 0.1 mm 7 mps 752 mmHg 70%
    10:00 +8°C° 0 mm 6 mps 753 mmHg 62%
    11:00 +9°C° 0 mm 6 mps 754 mmHg 54%
    12:00 +10°C° 0 mm 6 mps 755 mmHg 46%
    13:00 +10°C° 0 mm 6 mps 755 mmHg 44%
    14:00 +10°C° 0 mm 6 mps 755 mmHg 41%
    15:00 +10°C° 0 mm 6 mps 755 mmHg 39%
    16:00 +10°C° 0 mm 6 mps 756 mmHg 39%
    17:00 +9°C° 0 mm 6 mps 756 mmHg 39%
    18:00 +9°C° 0 mm 5 mps 756 mmHg 40%
    19:00 +8°C° 0 mm 5 mps 756 mmHg 45%
    20:00 +7°C° 0 mm 4 mps 757 mmHg 51%
    21:00 +7°C° 0 mm 3 mps 757 mmHg 56%
    22:00 +5°C° 0 mm 3 mps 757 mmHg 58%
    23:00 +4°C° 0 mm 3 mps 757 mmHg 59%

    28 May, Monday

    Time Temperature Precipitation Wind Pressure Humidity
    00:00 +3°C° 0 mm 3 mps 757 mmHg 61%
    01:00 +3°C° 0 mm 3 mps 757 mmHg 64%
    02:00 +2°C° 0 mm 3 mps 758 mmHg 67%
    03:00 +2°C° 0 mm 3 mps 758 mmHg 70%
    04:00 +3°C° 0 mm 4 mps 758 mmHg 66%
    05:00 +4°C° 0 mm 4 mps 758 mmHg 62%
    06:00 +5°C° 0 mm 5 mps 758 mmHg 58%
    07:00 +5°C° 0 mm 5 mps 757 mmHg 58%
    08:00 +6°C° 0 mm 5 mps 757 mmHg 57%
    09:00 +7°C° 0 mm 5 mps 757 mmHg 56%
    10:00 +7°C° 0.1 mm 5 mps 756 mmHg 56%
    11:00 +8°C° 0.1 mm 5 mps 756 mmHg 56%
    12:00 +9°C° 0.1 mm 5 mps 756 mmHg 55%
    13:00 +9°C° 0.2 mm 5 mps 755 mmHg 58%
    14:00 +9°C° 0.2 mm 5 mps 755 mmHg 61%
    15:00 +9°C° 0.2 mm 5 mps 755 mmHg 64%
    16:00 +10°C° 0.1 mm 4 mps 755 mmHg 63%
    17:00 +10°C° 0.1 mm 4 mps 755 mmHg 62%
    18:00 +10°C° 0.1 mm 4 mps 755 mmHg 62%
    19:00 +9°C° 0 mm 3 mps 755 mmHg 67%
    20:00 +8°C° 0 mm 3 mps 755 mmHg 71%
    21:00 +6°C° 0 mm 2 mps 755 mmHg 76%
    22:00 +6°C° 0 mm 2 mps 755 mmHg 80%
    23:00 +5°C° 0 mm 2 mps 755 mmHg 84%
    Show more